Вернуться в каталог

STARLINK-5027

АктивенСвязьVLEO
NORAD 55370·PAYLOAD·🇺🇸 United States

Запущен Jan 26, 2023 с Cape Canaveral Space Force Station

Loading…

Ближайшие Пролёты (ближайшие 24 часа)

TLE

СвежийSource: CelesTrak SupGP

Эпоха: Sep 15, 2026, 02:41 UTC

1 55370C 23013AR  26258.11229167  .00033653  00000+0  12190-2 0  2583
2 55370  43.0022 331.6492 0001494 262.4913 127.7672 15.27557531    10

Отслеживайте STARLINK-5027 в реальном времени с AllMySat

Download on the App Store